Starlink 5348

operational
NORAD ID: 56515 Int'l Des: 2023-065 Owner: SPXS Country: US Constellation: starlink
LEOCIRCULAR

About Starlink 5348

Description loading...

Live Position

Loading 3D Globe...

Upcoming Passes

Altitude History

Altitude vs Time

uPlot chart will show altitude changes over time

Two-Line Element Set

1 56515U 23065N 26037.30818620 -.00001013 00000-0 -59929-4 0 9999
2 56515 43.0051 20.8978 0001534 283.7202 76.3469 15.02528507151904
Epoch: Feb 6, 2026 • Age: 22 hours

Current Status

Altitude 559.1 km
Velocity 7.59 km/s
Sub-Earth Point 23.35°N, 177.5°E
Launch Date May 14, 2023
Age 2.7 years
Type internet

Technical Details

Classification Payload
Mass 305.00 kg
Dry Mass 290.00 kg
Total Mass 305.00 kg
Length 0.20 m
Diameter 2.80 m
Span 9.00 m
Shape Box + pan
Manufacturer SPXS
Bus Type Starlink
Phase Status In Orbit
Owner/State SPXS/US

Large Constellations

Loading constellations...